Regional Weather Roundup
Issued by NWS

Home | Current Version | Previous Version | Graphics & Text | Print | Product List | Glossary On
Versions: 1 2 3 4 5 6 7 8 9 10 11 12 13 14 15 16 17 18 19 20 21 22 23 24 25 26 27 28 29 30 31 32 33 34 35 36 37 38 39 40 41 42 43 44 45 46 47 48 49 50
000
ASUS43 KFSD 272302
RWRSD

WEATHER ROUNDUP FOR SOUTH DAKOTA
NATIONAL WEATHER SERVICE SIOUX FALLS SD
600 PM CDT THU JUL 27 2017

NOTE: "FAIR" INDICATES FEW OR NO CLOUDS BELOW 12,000 FEET WITH NO
SIGNIFICANT WEATHER AND/OR OBSTRUCTIONS TO VISIBILITY.


SDZ001>005-009-010-012>017-280000-
NORTHWEST AND NORTH CENTRAL SOUTH DAKOTA

CITY           SKY/WX    TMP DP  RH WIND       PRES   REMARKS
BUFFALO          N/A     72  51  47 SE32G40   29.97F
FAITH            N/A     69  62  78 SW9       30.07F
MOBRIDGE       CLOUDY    84  61  45 E14       30.03F
$$

SDZ012>016-024>037-041>051-057-063-072>074-280000-
SOUTHWEST AND SOUTH CENTRAL SOUTH DAKOTA

CITY           SKY/WX    TMP DP  RH WIND       PRES   REMARKS
RAPID CTY ARPT SUNNY     80  48  32 SE18      30.06F
PIERRE         SUNNY     86  56  35 E13       30.02F
CUSTER         MOSUNNY   67  53  61 SE8G20    30.17F
ELLSWORTH AFB  CLOUDY    79  47  31 S17       30.05F
PHILIP         CLOUDY    87  54  32 SE18G24   30.02F
PINE RIDGE     CLOUDY    80  50  34 SE13G26   30.05F
SPEARFISH      TSTM      63  61  94 SE15G24   30.09F
WINNER         FAIR      85  57  38 S10       30.06F
$$

SDZ004>011-016>023-039-040-280000-
NORTHEAST SOUTH DAKOTA

CITY           SKY/WX    TMP DP  RH WIND       PRES   REMARKS
ABERDEEN       SUNNY     83  59  44 E9        30.06F
WATERTOWN      SUNNY     79  59  50 NE5       30.07F
BROOKINGS      MOSUNNY   80  60  50 NE8       30.08F
SISSETON         N/A     81  58  45 SE3       30.06S
$$

SDZ017-020-022-023-036>040-048>070-280000-
SOUTHEAST SOUTH DAKOTA

CITY           SKY/WX    TMP DP  RH WIND       PRES   REMARKS
SIOUX FALLS    MOSUNNY   81  62  52 NE9       30.06S
HURON          MOSUNNY   82  61  48 E6        30.05F
CHAMBERLAIN    MOSUNNY   84  55  36 SE6       30.06S
MITCHELL       SUNNY     84  62  47 NE6       30.05F
YANKTON        SUNNY     82  60  47 NE12      30.05S
$$

ABBREVIATIONS USED IN REMARKS
   TC - TEMPERATURE IN CELSIUS
  WCI - WIND CHILL INDEX
   HX - HEAT INDEX
  VSB - VISIBILITY





USA.gov is the U.S. government's official web portal to all federal, state and local government web resources and services.